[[{"header":{"parameterUnit":"m.s-1","parameterCategory":1,"la1":30.2991,"la2":30.254,"lo1":-89.0895,"lo2":-89.0444,"dy":0.0017,"dx":0.0017,"nx":28,"ny":28,"refTime":"2024-04-14T21:00:00:Z","depth":0,"parameterNumber":2,"parameterNumberName":"U-component_of_WINDS"},"data":[0,0,0,0,0,0,0,0,0,0,0,0,0,0,0,0,0,0,0,0,0,0,0,0,0,0,0,0,0,0,0,0,0,0,0,0,0,0,0,0,0,0,0,0,0,0,0,0,0,0,0,0,0,0,0,0,0,0,-4.6013,-4.6014,0,-4.6107,-4.6108,-4.6109,-4.6112,-4.611,-4.6109,-4.6108,-4.6201,-4.6204,-4.6208,0,0,0,0,0,0,0,0,0,0,0,0,0,-4.5836,-4.5839,-4.6013,-4.6014,-4.6016,-4.6107,-4.6108,-4.6109,-4.6112,-4.611,-4.6109,-4.6108,-4.62,-4.6204,-4.6208,0,0,0,0,0,0,0,0,0,0,0,0,0,-4.5919,-4.584,-4.6013,-4.6028,-4.603,-4.6106,-4.6108,-4.6109,-4.6112,-4.611,-4.6109,-4.6107,-4.6198,-4.6203,-4.6208,-4.6275,0,0,-4.6225,-4.6227,0,0,0,0,0,0,0,0,-4.5914,-4.5926,-4.6025,-4.6027,-4.603,-4.6096,-4.6079,-4.6165,-4.6112,-4.6081,-4.6108,-4.6106,-4.6167,-4.6175,-4.6196,-4.6279,-4.6283,-4.6225,-4.6228,-4.623,-4.6232,0,0,0,0,0,0,0,-4.5909,-4.5922,-4.605,-4.6026,-4.6029,-4.603,-4.604,-4.6095,-4.6132,-4.6084,-4.6084,-4.6095,-4.6168,-4.6191,-4.6198,-4.6285,-4.6225,-4.623,-4.6233,-4.6235,-4.6428,-4.643,0,0,0,0,0,0,-4.59,-4.5917,-4.6047,-4.6053,-4.5967,-4.6034,-4.6045,-4.6076,-4.6132,-4.6138,-4.6097,-4.6095,-4.6183,-4.6192,-4.6201,-4.6282,-4.623,-4.6235,-4.6238,-4.6426,-4.6428,-4.6431,0,0,0,0,0,0,-4.5896,-4.5912,-4.6043,-4.5985,-4.6002,-4.6039,-4.6074,-4.6079,-4.6102,-4.6141,-4.6148,-4.6113,-4.6182,-4.6194,-4.6257,-4.6285,-4.6238,-4.6243,-4.6424,-4.6427,-4.6429,-4.6445,0,0,0,0,0,0,-4.5891,-4.591,-4.5936,-4.5986,-4.6005,-4.6098,-4.6076,-4.6082,-4.6111,-4.611,-4.6159,-4.6165,-4.6181,-4.6249,-4.6262,-4.6292,-4.6247,-4.6421,-4.6425,-4.6429,-4.6442,-4.6448,-4.6453,0,0,0,0,0,-4.5885,-4.5936,-4.5937,-4.5953,-4.6038,-4.6099,-4.611,-4.6129,-4.6113,-4.6139,-4.6165,-4.6163,-4.6281,-4.6256,-4.627,-4.6302,-4.6419,-4.6424,-4.6428,-4.6439,-4.6446,-4.6453,0,0,0,0,0,0,-4.5887,-4.5942,-4.5945,-4.6013,-4.6052,-4.61,-4.6133,-4.6136,-4.6179,-4.6175,-4.6196,-4.6207,-4.627,-4.6293,-4.6263,-4.637,-4.6348,-4.6356,-4.6351,-4.6359,-4.6364,-4.6356,-4.6251,0,0,0,0,0,-4.5896,-4.5942,-4.5988,-4.6044,-4.6063,-4.6095,-4.6122,-4.6134,-4.6174,-4.6189,-4.622,-4.6258,-4.6304,-4.6333,-4.6378,-4.6447,-4.6457,-4.6476,-4.6481,-4.6486,-4.6491,-4.6529,-4.6538,-4.6445,-4.6445,-4.6445,0,0,-4.5913,-4.5949,-4.5977,-4.6045,-4.6076,-4.6122,-4.6108,-4.6158,-4.6192,-4.6197,-4.6258,-4.6282,-4.6327,-4.6393,-4.6423,-4.6414,-4.652,-4.6491,-4.6495,-4.6497,-4.6534,-4.6543,-4.6551,-4.6448,-4.6448,-4.6447,0,0,-4.5968,-4.6001,-4.6051,-4.6084,-4.6132,-4.6153,-4.6165,-4.6214,-4.623,-4.6293,-4.6297,-4.6339,-4.6417,-4.6448,-4.6475,-4.6546,-4.6545,-4.656,-4.6587,-4.6624,-4.6632,-4.6638,-4.6662,-4.667,-4.6566,-4.6566,-4.6566,0,-4.5983,-4.6054,-4.6076,-4.6126,-4.6156,-4.6165,-4.6216,-4.6246,-4.6305,-4.6325,-4.6315,-4.6414,-4.6445,-4.6518,-4.6536,-4.6557,-4.6571,-4.6552,-4.6629,-4.6636,-4.6642,-4.6665,-4.6674,-4.6567,-4.6567,-4.6567,-4.6567,0,-4.607,-4.6119,-4.6154,-4.6213,-4.6247,-4.6297,-4.6326,-4.6358,-4.6368,-4.639,-4.6454,-4.6492,-4.6544,-4.6563,-4.6573,-4.6639,-4.6631,-4.6625,-4.6603,-4.6652,-4.6674,-4.6683,-4.6569,-4.6568,-4.6568,-4.6568,0,0,-4.6125,-4.6198,-4.621,-4.6237,-4.6292,-4.633,-4.6381,-4.6434,-4.646,-4.6502,-4.6545,-4.6613,-4.6608,-4.6638,-4.6651,-4.6684,-4.6736,-4.6673,-4.6675,-4.6682,-4.6811,-4.6813,-4.6823,-4.6738,-4.674,-4.6742,-4.6806,0,-4.6184,-4.6275,-4.6298,-4.6375,-4.6421,-4.6432,-4.6477,-4.6515,-4.6539,-4.658,-4.6606,-4.6653,-4.6644,-4.6662,-4.6696,-4.6723,-4.6762,-4.6719,-4.6776,-4.6778,-4.6761,-4.6835,-4.6837,-4.6896,-4.6815,-4.6817,-4.6818,0,-4.6264,-4.6309,-4.6391,-4.6442,-4.6462,-4.6501,-4.6552,-4.6593,-4.6637,-4.6652,-4.6687,-4.6698,-4.6752,-4.6731,-4.6804,-4.6774,-4.68,-4.6818,-4.6821,-4.6824,-4.6798,-4.6837,-4.6915,-4.6923,-4.6832,-4.6831,-4.683,0,-4.6293,-4.6375,-4.6435,-4.6458,-4.6519,-4.6546,-4.6573,-4.6616,-4.6647,-4.6691,-4.6711,-4.6762,-4.6788,-4.6827,-4.6851,-4.6834,-4.6923,-4.6904,-4.6935,-4.6934,-4.695,-4.6948,-4.703,-4.6972,-4.6971,-4.6971,-4.6971,0,-4.6355,-4.6404,-4.6449,-4.6485,-4.6541,-4.6568,-4.6622,-4.6649,-4.6688,-4.673,-4.6744,-4.6782,-4.6813,-4.6857,-4.6877,-4.6934,-4.6947,-4.6959,-4.6963,-4.6956,-4.6954,-4.697,-4.6966,-4.6974,-4.6973,-4.6973,-4.6972,0,-4.6395,-4.6427,-4.6492,-4.6546,-4.6561,-4.66,-4.6645,-4.6681,-4.6707,-4.6759,-4.6773,-4.6813,-4.6864,-4.6894,-4.6959,-4.6972,-4.7035,-4.7039,-4.702,-4.7021,-4.705,-4.7046,-4.7143,-4.7157,-4.7092,-4.7092,-4.7093,0,-4.6431,-4.6469,-4.6528,-4.6557,-4.6585,-4.6632,-4.6664,-4.6693,-4.6725,-4.6781,-4.681,-4.6863,-4.6906,-4.6988,-4.7022,-4.7073,-4.7076,-4.7107,-4.7083,-4.7075,-4.7073,-4.707,-4.7073,-4.7109,-4.711,-4.711,-4.7111,0,-4.649,-4.6505,-4.655,-4.6602,-4.6641,-4.6683,-4.6724,-4.6748,-4.6784,-4.682,-4.6873,-4.6908,-4.6975,-4.7027,-4.7081,-4.7108,-4.7115,-4.7119,-4.7128,-4.7119,-4.7106,-4.7112,-4.7028,-4.7115,-4.7115,-4.7114,-4.7114,-4.7114,-4.6528,-4.6562,-4.6609,-4.666,-4.6695,-4.6734,-4.6771,-4.6802,-4.6848,-4.6905,-4.692,-4.6976,-4.7022,-4.7095,-4.7124,-4.7168,-4.7162,-4.7177,-4.718,-4.7182,-4.7182,-4.7102,-4.7178,-4.7178,-4.7178,-4.7178,-4.7178,0,-4.6586,-4.6617,-4.6664,-4.6723,-4.6763,-4.6769,-4.6817,-4.6849,-4.6899,-4.6941,-4.6985,-4.7047,-4.7099,-4.7138,-4.7191,-4.7219,-4.7224,-4.7232,-4.7228,-4.7234,-4.7185,-4.717,-4.7227,-4.7227,-4.7227,-4.7227,-4.7227,-4.7227,-4.662,-4.6679,-4.67,-4.6777,-4.6808,-4.6864,-4.689,-4.6927,-4.6961,-4.703,-4.7073,-4.71,-4.7141,-4.7198,-4.7245,-4.7256,-4.7273,-4.7281,-4.7291,-4.7243,-4.7238,-4.7232,-4.7219,-4.7285,-4.7285,-4.7337,-4.7337,-4.7337]},{"header":{"parameterUnit":"m.s-1","parameterCategory":1,"la1":30.2991,"la2":30.254,"lo1":-89.0895,"lo2":-89.0444,"dy":0.0017,"dx":0.0017,"nx":28,"ny":28,"refTime":"2024-04-14T21:00:00:Z","depth":0,"parameterNumber":3,"parameterNumberName":"V-component_of_WINDS"},"data":[0,0,0,0,0,0,0,0,0,0,0,0,0,0,0,0,0,0,0,0,0,0,0,0,0,0,0,0,0,0,0,0,0,0,0,0,0,0,0,0,0,0,0,0,0,0,0,0,0,0,0,0,0,0,0,0,0,0,3.1009,3.101,0,3.1112,3.1113,3.1114,3.1185,3.1186,3.1186,3.1187,3.129,3.1292,3.1294,0,0,0,0,0,0,0,0,0,0,0,0,0,3.0874,3.0876,3.1009,3.101,3.1012,3.1112,3.1113,3.1114,3.1185,3.1186,3.1186,3.1187,3.1289,3.1292,3.1294,0,0,0,0,0,0,0,0,0,0,0,0,0,3.095,3.0877,3.1009,3.1059,3.1065,3.1111,3.1113,3.1115,3.1185,3.1186,3.1187,3.1187,3.1288,3.1291,3.1295,3.1299,0,0,3.1305,3.1306,0,0,0,0,0,0,0,0,3.0946,3.0955,3.105,3.1056,3.1062,3.1137,3.1103,3.1176,3.1185,3.1139,3.1187,3.1188,3.1238,3.1245,3.1263,3.1304,3.1308,3.1305,3.1307,3.1309,3.1309,0,0,0,0,0,0,0,3.094,3.0951,3.105,3.1052,3.1059,3.1076,3.1088,3.1117,3.1183,3.1143,3.1149,3.116,3.1241,3.1259,3.1266,3.131,3.1305,3.1308,3.131,3.1311,3.1362,3.1361,0,0,0,0,0,0,3.0927,3.0946,3.1046,3.1053,3.1005,3.1078,3.1091,3.1112,3.1182,3.1194,3.1159,3.1163,3.1253,3.1262,3.127,3.1281,3.1309,3.1312,3.1314,3.1362,3.1362,3.1361,0,0,0,0,0,0,3.0924,3.0936,3.1042,3.1001,3.1016,3.108,3.1102,3.1113,3.1132,3.1195,3.1206,3.1166,3.1254,3.1265,3.1292,3.1285,3.1313,3.1316,3.1363,3.1362,3.1361,3.1302,0,0,0,0,0,0,3.092,3.0934,3.0936,3.1001,3.1018,3.1062,3.1102,3.1115,3.1137,3.1143,3.1204,3.1215,3.1256,3.1286,3.1295,3.1291,3.1319,3.1364,3.1363,3.1362,3.1305,3.1299,3.1295,0,0,0,0,0,3.0915,3.0915,3.0936,3.0948,3.1022,3.1062,3.1072,3.112,3.1137,3.114,3.118,3.1213,3.1285,3.1289,3.1299,3.1295,3.1365,3.1363,3.1362,3.1308,3.1301,3.1295,0,0,0,0,0,0,3.0847,3.0924,3.0948,3.0969,3.1008,3.1074,3.1079,3.111,3.1145,3.1149,3.1207,3.122,3.1241,3.1271,3.1274,3.1304,3.1329,3.1329,3.1284,3.1278,3.1273,3.1265,3.1322,0,0,0,0,0,3.0834,3.086,3.0926,3.0938,3.0957,3.1014,3.1033,3.1067,3.111,3.1127,3.117,3.121,3.1242,3.1262,3.1294,3.131,3.1325,3.1313,3.1307,3.1303,3.1303,3.1315,3.1311,3.1356,3.1356,3.1356,0,0,3.0808,3.0854,3.0866,3.0926,3.096,3.0987,3.1028,3.1053,3.1074,3.1131,3.116,3.1192,3.1241,3.1263,3.1274,3.1288,3.1294,3.1301,3.1297,3.1299,3.1313,3.1309,3.1305,3.1355,3.1355,3.1355,0,0,3.0775,3.0811,3.0826,3.086,3.0913,3.0952,3.0955,3.1016,3.1041,3.1071,3.1115,3.114,3.1193,3.1227,3.125,3.1232,3.1264,3.1241,3.1213,3.1225,3.1221,3.1218,3.1213,3.121,3.1241,3.124,3.124,0,3.0736,3.0777,3.0829,3.0853,3.0878,3.0933,3.0949,3.0979,3.1039,3.1055,3.107,3.114,3.1177,3.1208,3.1204,3.1221,3.1227,3.1234,3.1218,3.1215,3.1213,3.1209,3.1207,3.1237,3.1238,3.1238,3.1238,0,3.0727,3.0756,3.0761,3.0819,3.0845,3.0864,3.092,3.094,3.0972,3.1009,3.104,3.1086,3.113,3.114,3.117,3.1176,3.1183,3.1207,3.1233,3.1205,3.1202,3.1201,3.1233,3.1234,3.1235,3.1236,0,0,3.0653,3.0741,3.0742,3.077,3.0833,3.0856,3.0878,3.0922,3.0939,3.0979,3.1,3.1045,3.1068,3.1096,3.1131,3.1141,3.1125,3.1164,3.1166,3.1156,3.1136,3.1118,3.1115,3.1146,3.1146,3.1146,3.1132,0,3.0629,3.0673,3.0722,3.0749,3.0776,3.0829,3.0849,3.089,3.0926,3.0954,3.0994,3.1025,3.1053,3.107,3.1082,3.1124,3.1122,3.1126,3.1167,3.1168,3.1153,3.1113,3.1094,3.1078,3.1131,3.1131,3.1131,0,3.0608,3.0647,3.0677,3.0739,3.0752,3.0769,3.0815,3.0841,3.0889,3.0915,3.0946,3.0984,3.1011,3.1034,3.1072,3.1074,3.1094,3.1117,3.1118,3.1124,3.1147,3.1118,3.1074,3.1072,3.1129,3.1129,3.1129,0,3.0552,3.0612,3.0638,3.066,3.0733,3.0744,3.0775,3.0823,3.0848,3.0887,3.0904,3.0945,3.0968,3.1,3.1048,3.106,3.1082,3.1109,3.1105,3.1103,3.1107,3.1106,3.1065,3.1118,3.1118,3.1118,3.1118,0,3.0521,3.0538,3.0614,3.063,3.0651,3.0706,3.0725,3.0761,3.0804,3.0828,3.0876,3.0898,3.0961,3.099,3.1029,3.1056,3.1065,3.1087,3.1097,3.1083,3.108,3.1097,3.1099,3.1118,3.1118,3.1118,3.1118,0,3.0462,3.0514,3.0546,3.0613,3.063,3.0642,3.07,3.0718,3.0757,3.0787,3.0798,3.0859,3.0896,3.0948,3.1001,3.1027,3.1049,3.1064,3.1033,3.1039,3.1033,3.1033,3.1002,3.1001,3.1053,3.1052,3.1052,0,3.0439,3.0454,3.0523,3.0543,3.0572,3.0604,3.0629,3.0685,3.071,3.0766,3.0778,3.0819,3.0855,3.0912,3.0962,3.1003,3.102,3.1007,3.1026,3.1013,3.1021,3.102,3.1022,3.1001,3.1001,3.1,3.0999,0,3.0394,3.042,3.0454,3.0499,3.0528,3.0565,3.0605,3.0618,3.0683,3.0708,3.0747,3.0775,3.083,3.0871,3.0919,3.0951,3.0986,3.0993,3.0994,3.098,3.0962,3.0973,3.102,3.0993,3.0994,3.0994,3.0995,3.0995,3.0354,3.0369,3.0421,3.0459,3.0495,3.0531,3.0552,3.0594,3.0628,3.0678,3.0709,3.0747,3.0796,3.0865,3.0895,3.0926,3.094,3.0942,3.0943,3.0942,3.0938,3.0957,3.0935,3.0935,3.0936,3.0936,3.0936,0,3.0312,3.0348,3.0382,3.0437,3.0467,3.0498,3.0544,3.0567,3.06,3.0643,3.0678,3.0724,3.0765,3.0818,3.0862,3.0876,3.0894,3.0886,3.0886,3.0893,3.0923,3.0917,3.0872,3.0872,3.0872,3.0872,3.0872,3.0872,3.0294,3.0323,3.0354,3.0402,3.0438,3.0476,3.05,3.0534,3.0569,3.0619,3.0653,3.0687,3.0735,3.0784,3.0822,3.0837,3.0851,3.0839,3.0858,3.0885,3.0891,3.0896,3.0892,3.0841,3.0841,3.0827,3.0827,3.0826]}]]